User: anonymous   Login
Location: Roanoke
(37.2710°N, 79.9420°W)
Time: 01:24:55
(UTC-04:00)
Language:

Cosmos 1441 Rocket - Orbit

View from above orbital plane
View from above orbital plane
View from above satellite
View from above satellite

Ground track
Ground track

The orbit data is extracted from the following two-line orbital elements,

1 13819U 83010B   17268.44697321  .00001079  00000-0  55617-4 0  9999
2 13819  81.1170  42.6151 0032744   6.1252 354.0369 15.15054060888907
Epoch (UTC): 25 September 2017 10:43:38
Eccentricity: 0.0032744
inclination: 81.1170°
perigee height: 498 km
apogee height: 543 km
right ascension of ascending node: 42.6151°
argument of perigee: 6.1252°
revolutions per day: 15.15054060
mean anomaly at epoch: 354.0369°
orbit number at epoch: 88890

The dashed part of the orbit path shows where the satellite is in the earth's shadow,  

DLR